Location: Glencliff
(36.1226°N, 86.7183°W)
Time: 11:07:25
(UTC+00:00)

Cosmos 1238 Rocket - Pass Details

Date: 25 August 2019
Orbit: 374 x 1035 km, 82.9° (Epoch: 15 September)

Event Time Altitude Azimuth Distance (km) Brightness Sun altitude
Rises 09:40:20 0° 344° (NNW) 2,304 6.2 -18.2°
Reaches altitude 10° 09:42:18 10° 336° (NNW) 1,488 5.1 -17.9°
Enters shadow 09:44:38 34° 295° (WNW) 748 3.2 -17.4°
